OBJECT K, 64885

Orbit data source: Space-Track

You're viewing an Uncataloged Satellite

Recently launched and/or uncataloged satellites may have evolving metadata. Metadata may include but not limited to: Owner, Maufacturer, Bus, Motor, and Mission.

OBJECT K, 64885 is a satellite in SSO that was launched on Fri, 25 Jul 2025 UTC via a SOYUZ-2-1B launch vehicle from the Vostochny Cosmodrome (VOSTO). Unknown objects in Earth's orbit typically refer to objects detected orbiting the Earth but have not yet been identified or cataloged. These objects could be anything from previously untracked satellites, spent rocket stages, debris from satellite collisions, or even natural meteoroids temporarily captured by Earth's gravity.

Loading next visibility...
Identifier
64885, 2025-155K
Orbit
SSO
Country
Flag of TBDTBD
Related business
None
Manufacturer
Unknown
Mission
Operational Commercial Technology
Bus & Motor
Unknown
Mass
Unknown
Launch date (UTC)
2025-07-25 (5 months ago)
Launch vehicle
SOYUZ-2-1B
Launch site
Vostochny Cosmodrome (VOSTO)
Object type
Unknown
Shape & HBR
Box, 1.1 m
Radar Cross Section
0.035 m², Medium (>0.1 m² and < 1m²)

Expand to show TLE details & history
Last TLE update: 10 hours ago

TLE from 10 hours ago
0 OBJECT K
1 64885U 25155K   25342.58397040  .00031088  00000-0  11009-2 0  9994
2 64885  97.4305 306.6376 0010225 111.6497 248.5833 15.29018635 51684
Epoch: 2025-12-08T14:00Z
TLE epoch observation values (Epoch: 2025-12-08T14:00:55.042Z)
Latitude
-0.00002°
Longitude
18.82735°
Altitude
484.413 km
Speed
7.622 km/s
True Right ascension
20h 26m 33s
True Declination
0° 00' 00"
Sunlit
Object was in daylight at epoch
Visualization orbit readout
Latitude
Unknown
Longitude
Unknown
Altitude
Unknown
Speed
Unknown
Apparent Right ascension
Unknown
Apparent Declination
Unknown
Sunlit
N/A
Visualization observer readout
Local Sidereal Time
21:57:37
Azimuth
Unknown
Elevation
Unknown
Doppler factor
Unknown
Orbital elements
Apogee altitude
482.708 km
Perigee altitude
468.692 km
Semi-major axis
6,853.837 km
Eccentricity
0.00102
Inclination
97.4305°
RAAN
306.6376°
Arg. of periapsis
111.6497°
True anomaly
248.47427°
Mean anomaly
248.5833°
Eccentric anomaly
248.52878°
Mean motion
3.8251 °/min
Orbital period
94.12 mins
BSTAR
0.0011009
Loading maneuver chart data...
Computing Atmospheric mass density...
Loading historical data...
Loading historical data...
Loading historical data...
Loading historical data...
Loading historical data...
Loading historical data...
Loading historical data...

Documentation

Showing up to 5 results
|